DW0333 Tranby-Lier NO current weather conditions

sailwx.info

Wind from 121 at 3 knots

Air temperature 18.9° C
Dewpoint 15.4° C

Last reported at 2014-Jul-30 08:48 UTC.
Time now 2014-Jul-30 09:14 UTC

Location: N 59°50' E 010°17'.
View on Google Maps.

See reports from other nearby stations

  
Tides and Currents Weather Stations Pressure Air Temp Water Temp Dewpoint Dewpoint Depression Visibility Wind Speed Wind Dir Waves Ship Positions
date/time (UTC)wind fromknots sea level pressurealtimeterstation pressurevisibilityair tempwater tempwave heightnotes
2014-Jul-30 08:48 121 3 18.9
2014-Jul-30 08:33 113 1 18.9
2014-Jul-30 08:18 079 0 19.4
2014-Jul-30 08:03 111 0 17.2
2014-Jul-30 07:47 133 0 17.2
2014-Jul-30 07:32 041 1 16.7
2014-Jul-30 07:17 075 1 15.6
2014-Jul-30 07:02 055 1 15.6
2014-Jul-30 06:47 138 1 16.1
2014-Jul-30 06:32 131 0 15.6
2014-Jul-30 06:16 075 1 15.0
2014-Jul-30 06:02 036 1 15.0
2014-Jul-30 05:47 069 0 15.0
2014-Jul-30 05:31 026 0 14.4
2014-Jul-30 05:16 033 1 14.4
2014-Jul-30 05:01 026 1 14.4
2014-Jul-30 04:44 051 1 14.4
2014-Jul-30 04:29 050 1 14.4
2014-Jul-30 04:14 041 1 14.4
2014-Jul-30 03:59 059 1 14.4
2014-Jul-30 03:44 041 1 14.4
2014-Jul-30 03:29 032 0 15.0
2014-Jul-30 03:13 022 0 15.0
2014-Jul-30 02:58 029 1 15.0
2014-Jul-30 02:43 039 1 15.0
2014-Jul-30 02:28 088 1 15.0
2014-Jul-30 02:12 040 1 14.4
2014-Jul-30 01:57 052 1 14.4
2014-Jul-30 01:42 053 1 14.4
2014-Jul-30 01:27 040 1 14.4
2014-Jul-30 01:12 042 1 15.0
2014-Jul-30 00:57 104 1 15.0
2014-Jul-30 00:41 090 2 15.0
2014-Jul-30 00:26 046 1 15.6
2014-Jul-30 00:12 109 2 15.0
2014-Jul-29 23:56 037 2 15.0
2014-Jul-29 23:42 098 2 15.6
2014-Jul-29 23:26 109 2 15.6
2014-Jul-29 23:09 111 3 15.6
2014-Jul-29 22:54 154 2 15.6
2014-Jul-29 22:39 096 3 15.6
2014-Jul-29 22:24 114 2 15.6
2014-Jul-29 22:08 059 2 15.6
2014-Jul-29 21:53 113 3 16.1
2014-Jul-29 21:38 118 3 16.1
2014-Jul-29 21:23 106 2 16.1
2014-Jul-29 20:52 089 3 16.1
2014-Jul-29 20:37 078 3 16.7
2014-Jul-29 20:22 031 3 16.7
2014-Jul-29 20:07 119 4 16.7
2014-Jul-29 19:52 085 3 17.2
2014-Jul-29 19:37 094 4 17.2
2014-Jul-29 19:21 111 5 17.8
2014-Jul-29 19:06 157 5 17.8
2014-Jul-29 18:51 090 5 18.3
2014-Jul-29 18:36 105 4 18.3
2014-Jul-29 18:06 120 5 19.4
2014-Jul-29 17:51 054 5 19.4
2014-Jul-29 17:36 127 5 20.6
2014-Jul-29 17:19 138 4 20.6
2014-Jul-29 17:04 113 4 21.1
2014-Jul-29 16:49 123 4 21.7
2014-Jul-29 16:34 138 4 21.7
2014-Jul-29 16:18 117 5 22.2
2014-Jul-29 16:03 151 6 22.2
2014-Jul-29 15:48 121 5 22.2
2014-Jul-29 15:33 131 6 22.2
2014-Jul-29 15:17 110 5 22.8
2014-Jul-29 15:02 135 5 22.8
2014-Jul-29 14:47 111 5 23.3
2014-Jul-29 14:32 094 5 23.9
2014-Jul-29 14:17 142 5 23.9
2014-Jul-29 14:02 131 6 23.9
2014-Jul-29 13:47 116 5 24.4
2014-Jul-29 13:32 148 5 24.4
2014-Jul-29 13:16 133 5 23.9
2014-Jul-29 13:01 067 4 24.4
2014-Jul-29 12:47 123 4 23.3
2014-Jul-29 12:31 158 4 24.4
2014-Jul-29 12:15 097 5 23.9
2014-Jul-29 11:59 043 4 23.3
2014-Jul-29 11:44 146 3 22.8
2014-Jul-29 11:29 196 2 23.9
2014-Jul-29 11:14 162 3 23.3
2014-Jul-29 10:59 265 3 21.7
2014-Jul-29 10:43 217 2 22.8
2014-Jul-29 10:28 075 2 21.7
2014-Jul-29 10:13 115 2 22.2
2014-Jul-29 09:57 156 2 21.7
2014-Jul-29 09:42 079 1 20.0
2014-Jul-29 09:27 131 1 21.1
2014-Jul-29 09:12 167 2 20.6
2014-Jul-29 08:57 198 2 19.4
2014-Jul-29 08:43 277 1 19.4
2014-Jul-29 08:27 283 1 18.9
2014-Jul-29 08:12 267 1 19.4
2014-Jul-29 07:56 245 2 18.9
2014-Jul-29 07:41 099 1 19.4
2014-Jul-29 07:27 131 1 18.9
2014-Jul-29 07:12 108 1 18.9
2014-Jul-29 06:56 181 0 18.3
2014-Jul-29 06:39 050 0 18.3
2014-Jul-29 06:24 354 0 17.8
2014-Jul-29 06:09 109 0 17.8
2014-Jul-29 05:53 360 17.2
2014-Jul-29 05:38 059 0 16.7
2014-Jul-29 05:24 086 0 16.1
2014-Jul-29 05:08 012 16.1
2014-Jul-29 04:52 001 15.6
2014-Jul-29 04:37 001 15.6
2014-Jul-29 04:22 001 15.6
2014-Jul-29 04:07 012 0 15.0
2014-Jul-29 03:52 021 0 15.0
2014-Jul-29 03:37 323 0 15.0
2014-Jul-29 03:21 022 0 15.0
2014-Jul-29 03:07 339 0 15.0
2014-Jul-29 02:52 315 0 15.0
2014-Jul-29 02:36 051 0 15.6
2014-Jul-29 02:21 303 0 15.6
2014-Jul-29 02:06 013 0 15.6
2014-Jul-29 01:51 030 0 15.6
2014-Jul-29 01:34 352 0 15.6
2014-Jul-29 01:20 333 0 15.6
2014-Jul-29 01:04 015 16.1
2014-Jul-29 00:49 015 16.1
2014-Jul-29 00:33 360 0 16.1
2014-Jul-29 00:18 025 0 16.1
2014-Jul-29 00:03 333 16.7
2014-Jul-28 23:48 333 16.7
2014-Jul-28 23:32 346 0 16.7
2014-Jul-28 23:17 058 0 16.7
2014-Jul-28 23:02 027 0 16.7
2014-Jul-28 22:47 360 0 16.7
2014-Jul-28 22:32 032 0 16.7
2014-Jul-28 22:18 032 0 16.7
2014-Jul-28 22:01 040 0 17.2
2014-Jul-28 21:47 360 1 17.2
2014-Jul-28 21:31 015 2 17.2
2014-Jul-28 21:16 311 2 17.2
2014-Jul-28 21:03 360 0 16.7
2014-Jul-28 20:47 035 1 16.7
2014-Jul-28 20:30 310 0 17.2
2014-Jul-28 20:16 319 17.2
2014-Jul-28 19:59 303 0 17.2
2014-Jul-28 19:44 035 1 17.2
2014-Jul-28 19:30 278 0 17.2
2014-Jul-28 19:14 153 3 18.3
2014-Jul-28 18:58 315 4 18.3
2014-Jul-28 18:44 181 1 19.4
2014-Jul-28 18:28 067 1 20.0
2014-Jul-28 18:13 086 1 20.6
2014-Jul-28 17:58 061 2 21.1
2014-Jul-28 17:43 117 3 21.7
2014-Jul-28 17:27 133 3 22.8
2014-Jul-28 17:12 106 5 22.8
2014-Jul-28 16:57 140 5 23.3
2014-Jul-28 16:42 116 4 23.3
2014-Jul-28 16:27 085 4 23.9
2014-Jul-28 16:11 119 4 23.9
2014-Jul-28 15:56 188 5 23.9
2014-Jul-28 15:41 136 5 23.9
2014-Jul-28 15:26 166 5 23.9
2014-Jul-28 15:11 154 5 24.4
2014-Jul-28 14:56 150 5 24.4
2014-Jul-28 14:39 161 5 24.4
2014-Jul-28 14:24 152 5 23.3
2014-Jul-28 14:09 165 5 22.8
2014-Jul-28 13:54 171 5 25.0
2014-Jul-28 13:39 127 5 24.4
2014-Jul-28 13:24 264 4 25.0
2014-Jul-28 13:09 207 4 24.4
2014-Jul-28 12:54 212 4 24.4
2014-Jul-28 12:38 295 3 23.9
2014-Jul-28 12:23 207 3 24.4
2014-Jul-28 12:07 226 3 23.3
2014-Jul-28 11:53 192 2 23.3
2014-Jul-28 11:37 207 3 23.3
2014-Jul-28 11:23 182 2 22.8
2014-Jul-28 11:07 257 2 22.8
2014-Jul-28 10:53 137 1 22.2
2014-Jul-28 10:38 223 0 21.7
2014-Jul-28 10:23 305 1 20.0
2014-Jul-28 10:06 077 1 20.6
2014-Jul-28 09:53 115 1 19.4
2014-Jul-28 09:36 158 0 19.4
2014-Jul-28 09:20 109 1 20.0
2014-Jul-28 09:04 164 1 20.0